• In Kazakhstan
  • List of Countries
  • For 7 days
  • Water Temperature
  • Satellite Maps
  • Weather Map
  • News
  • Weather Widgets
  • user-avatar
    Login

    Hourly Weather Ondjiwa

    Today, 17 July, Wednesday

    Time Temperature Precipitation Wind Pressure Humidity
    00:00 +13°C° 0 mm 2 mps 669 mmHg 24%
    01:00 +13°C° 0 mm 2 mps 669 mmHg 28%
    02:00 +12°C° 0 mm 2 mps 669 mmHg 30%
    03:00 +12°C° 0 mm 2 mps 669 mmHg 31%
    04:00 +12°C° 0 mm 2 mps 669 mmHg 33%
    05:00 +10°C° 0 mm 2 mps 669 mmHg 35%
    06:00 +10°C° 0 mm 2 mps 670 mmHg 37%
    07:00 +10°C° 0 mm 2 mps 671 mmHg 39%
    08:00 +14°C° 0 mm 3 mps 671 mmHg 34%
    09:00 +19°C° 0 mm 3 mps 672 mmHg 28%
    10:00 +25°C° 0 mm 4 mps 673 mmHg 22%
    11:00 +26°C° 0 mm 4 mps 673 mmHg 19%
    12:00 +28°C° 0 mm 3 mps 672 mmHg 16%
    13:00 +30°C° 0 mm 3 mps 672 mmHg 13%
    14:00 +30°C° 0 mm 3 mps 671 mmHg 12%
    15:00 +30°C° 0 mm 2 mps 671 mmHg 12%
    16:00 +30°C° 0 mm 2 mps 671 mmHg 11%
    17:00 +27°C° 0 mm 2 mps 670 mmHg 14%
    18:00 +24°C° 0 mm 2 mps 670 mmHg 18%
    19:00 +20°C° 0 mm 2 mps 669 mmHg 21%
    20:00 +18°C° 0 mm 2 mps 669 mmHg 23%
    21:00 +17°C° 0 mm 2 mps 669 mmHg 26%
    22:00 +16°C° 0 mm 2 mps 669 mmHg 28%
    23:00 +14°C° 0 mm 3 mps 669 mmHg 29%

    Tomorrow, 18 July, Thursday

    Time Temperature Precipitation Wind Pressure Humidity
    00:00 +14°C° 0 mm 3 mps 669 mmHg 30%
    01:00 +14°C° 0 mm 3 mps 669 mmHg 31%
    02:00 +13°C° 0 mm 3 mps 669 mmHg 33%
    03:00 +13°C° 0 mm 3 mps 669 mmHg 34%
    04:00 +12°C° 0 mm 3 mps 669 mmHg 36%
    05:00 +12°C° 0 mm 3 mps 669 mmHg 38%
    06:00 +11°C° 0 mm 3 mps 670 mmHg 39%
    07:00 +12°C° 0 mm 2 mps 670 mmHg 41%
    08:00 +16°C° 0 mm 3 mps 671 mmHg 34%
    09:00 +20°C° 0 mm 4 mps 672 mmHg 27%
    10:00 +25°C° 0 mm 4 mps 673 mmHg 20%
    11:00 +27°C° 0 mm 4 mps 672 mmHg 18%
    12:00 +29°C° 0 mm 4 mps 672 mmHg 15%
    13:00 +31°C° 0 mm 3 mps 671 mmHg 12%
    14:00 +31°C° 0 mm 3 mps 671 mmHg 12%
    15:00 +31°C° 0 mm 3 mps 670 mmHg 11%
    16:00 +31°C° 0 mm 2 mps 670 mmHg 11%
    17:00 +28°C° 0 mm 2 mps 669 mmHg 14%
    18:00 +24°C° 0 mm 2 mps 669 mmHg 17%
    19:00 +20°C° 0 mm 2 mps 668 mmHg 21%
    20:00 +19°C° 0 mm 2 mps 669 mmHg 22%
    21:00 +18°C° 0 mm 2 mps 669 mmHg 24%
    22:00 +16°C° 0 mm 2 mps 669 mmHg 26%
    23:00 +16°C° 0 mm 2 mps 669 mmHg 27%

    Day after tomorrow, 19 July, Friday

    Time Temperature Precipitation Wind Pressure Humidity
    00:00 +15°C° 0 mm 2 mps 668 mmHg 29%
    01:00 +15°C° 0 mm 2 mps 668 mmHg 30%
    02:00 +14°C° 0 mm 2 mps 668 mmHg 32%
    03:00 +14°C° 0 mm 2 mps 668 mmHg 34%
    04:00 +12°C° 0 mm 3 mps 668 mmHg 35%
    05:00 +13°C° 0 mm 2 mps 668 mmHg 37%
    06:00 +12°C° 0 mm 2 mps 669 mmHg 38%
    07:00 +12°C° 0 mm 2 mps 669 mmHg 39%
    08:00 +16°C° 0 mm 3 mps 670 mmHg 32%
    09:00 +21°C° 0 mm 4 mps 671 mmHg 25%
    10:00 +26°C° 0 mm 4 mps 672 mmHg 18%
    11:00 +28°C° 0 mm 4 mps 672 mmHg 15%
    12:00 +30°C° 0 mm 4 mps 671 mmHg 13%
    13:00 +31°C° 0 mm 3 mps 671 mmHg 11%
    14:00 +31°C° 0 mm 3 mps 670 mmHg 10%
    15:00 +33°C° 0 mm 3 mps 670 mmHg 10%
    16:00 +33°C° 0 mm 3 mps 669 mmHg 9%
    17:00 +28°C° 0 mm 2 mps 669 mmHg 12%
    18:00 +25°C° 0 mm 2 mps 668 mmHg 14%
    19:00 +20°C° 0 mm 2 mps 668 mmHg 17%
    20:00 +19°C° 0 mm 2 mps 668 mmHg 18%
    21:00 +18°C° 0 mm 2 mps 668 mmHg 20%
    22:00 +16°C° 0 mm 2 mps 668 mmHg 21%
    23:00 +16°C° 0 mm 2 mps 668 mmHg 22%

    20 July, Saturday

    Time Temperature Precipitation Wind Pressure Humidity
    00:00 +15°C° 0 mm 2 mps 668 mmHg 22%
    01:00 +15°C° 0 mm 2 mps 668 mmHg 23%
    02:00 +14°C° 0 mm 2 mps 667 mmHg 24%
    03:00 +13°C° 0 mm 2 mps 667 mmHg 25%
    04:00 +13°C° 0 mm 2 mps 667 mmHg 26%
    05:00 +12°C° 0 mm 2 mps 667 mmHg 28%
    06:00 +12°C° 0 mm 2 mps 668 mmHg 29%
    07:00 +12°C° 0 mm 2 mps 668 mmHg 31%
    08:00 +16°C° 0 mm 3 mps 669 mmHg 26%
    09:00 +21°C° 0 mm 4 mps 671 mmHg 21%
    10:00 +26°C° 0 mm 4 mps 672 mmHg 16%
    11:00 +28°C° 0 mm 4 mps 671 mmHg 14%
    12:00 +30°C° 0 mm 4 mps 671 mmHg 12%
    13:00 +33°C° 0 mm 4 mps 670 mmHg 10%
    14:00 +33°C° 0 mm 4 mps 670 mmHg 10%
    15:00 +33°C° 0 mm 4 mps 669 mmHg 9%
    16:00 +33°C° 0 mm 3 mps 669 mmHg 9%
    17:00 +28°C° 0 mm 2 mps 668 mmHg 12%
    18:00 +24°C° 0 mm 2 mps 668 mmHg 15%
    19:00 +21°C° 0 mm 1 mps 667 mmHg 18%
    20:00 +20°C° 0 mm 1 mps 667 mmHg 18%
    21:00 +19°C° 0 mm 1 mps 667 mmHg 19%
    22:00 +17°C° 0 mm 2 mps 668 mmHg 20%
    23:00 +16°C° 0 mm 2 mps 668 mmHg 21%

    21 July, Sunday

    Time Temperature Precipitation Wind Pressure Humidity
    00:00 +15°C° 0 mm 2 mps 667 mmHg 21%
    01:00 +14°C° 0 mm 2 mps 667 mmHg 22%
    02:00 +14°C° 0 mm 2 mps 667 mmHg 23%
    03:00 +13°C° 0 mm 2 mps 667 mmHg 23%
    04:00 +13°C° 0 mm 2 mps 667 mmHg 24%
    05:00 +13°C° 0 mm 2 mps 668 mmHg 25%
    06:00 +11°C° 0 mm 3 mps 668 mmHg 27%
    07:00 +11°C° 0 mm 3 mps 669 mmHg 28%
    08:00 +17°C° 0 mm 3 mps 670 mmHg 24%
    09:00 +21°C° 0 mm 3 mps 671 mmHg 19%
    10:00 +27°C° 0 mm 4 mps 672 mmHg 14%
    11:00 +28°C° 0 mm 4 mps 671 mmHg 13%
    12:00 +30°C° 0 mm 4 mps 671 mmHg 11%
    13:00 +33°C° 0 mm 4 mps 670 mmHg 9%
    14:00 +33°C° 0 mm 4 mps 670 mmHg 9%
    15:00 +34°C° 0 mm 3 mps 669 mmHg 8%
    16:00 +34°C° 0 mm 3 mps 669 mmHg 8%
    17:00 +29°C° 0 mm 3 mps 669 mmHg 10%
    18:00 +26°C° 0 mm 3 mps 668 mmHg 13%
    19:00 +22°C° 0 mm 3 mps 668 mmHg 15%
    20:00 +21°C° 0 mm 3 mps 668 mmHg 16%
    21:00 +20°C° 0 mm 3 mps 668 mmHg 17%
    22:00 +18°C° 0 mm 3 mps 668 mmHg 18%
    23:00 +18°C° 0 mm 3 mps 668 mmHg 18%

    22 July, Monday

    Time Temperature Precipitation Wind Pressure Humidity
    00:00 +17°C° 0 mm 3 mps 668 mmHg 19%
    01:00 +16°C° 0 mm 2 mps 668 mmHg 20%
    02:00 +14°C° 0 mm 2 mps 667 mmHg 21%
    03:00 +13°C° 0 mm 2 mps 667 mmHg 23%
    04:00 +12°C° 0 mm 1 mps 667 mmHg 24%
    05:00 +12°C° 0 mm 1 mps 668 mmHg 25%
    06:00 +12°C° 0 mm 1 mps 668 mmHg 25%
    07:00 +10°C° 0 mm 2 mps 669 mmHg 26%
    08:00 +16°C° 0 mm 2 mps 670 mmHg 21%
    09:00 +20°C° 0 mm 3 mps 671 mmHg 16%
    10:00 +25°C° 0 mm 4 mps 672 mmHg 11%
    11:00 +27°C° 0 mm 4 mps 671 mmHg 10%
    12:00 +30°C° 0 mm 4 mps 671 mmHg 9%
    13:00 +33°C° 0 mm 3 mps 670 mmHg 8%
    14:00 +33°C° 0 mm 3 mps 670 mmHg 8%
    15:00 +32°C° 0 mm 2 mps 669 mmHg 8%
    16:00 +32°C° 0 mm 1 mps 668 mmHg 8%
    17:00 +29°C° 0 mm 1 mps 668 mmHg 10%
    18:00 +26°C° 0 mm 2 mps 668 mmHg 12%
    19:00 +21°C° 0 mm 2 mps 667 mmHg 14%
    20:00 +20°C° 0 mm 2 mps 667 mmHg 15%
    21:00 +19°C° 0 mm 2 mps 668 mmHg 16%
    22:00 +18°C° 0 mm 3 mps 668 mmHg 18%
    23:00 +17°C° 0 mm 3 mps 668 mmHg 18%
    Show more